Regional Weather Roundup
Issued by NWS

Home | Current Version | Previous Version | Graphics & Text | Print | Product List | Glossary On
Versions: 1 2 3 4 5 6 7 8 9 10 11 12 13 14 15 16 17 18 19 20 21 22 23 24 25 26 27 28 29 30 31 32 33 34 35 36 37 38 39 40 41 42 43 44 45 46 47 48 49 50
000
ASUS43 KLMK 120302
RWRKY
KENTUCKY REGIONAL WEATHER ROUNDUP
NATIONAL WEATHER SERVICE LOUISVILLE KY
1000 PM EST MON DEC 11 2017

NOTE "FAIR" INDICATES FEW OR NO CLOUDS BELOW 12,000 FEET
WITH NO SIGNIFICANT WEATHER AND/OR OBSTRUCTIONS TO VISIBILITY.

KYZ001>023-026-027-061>063-070>075-120400-
WESTERN AND SOUTH CENTRAL KENTUCKY

CITY           SKY/WX    TMP DP  RH WIND       PRES   REMARKS
PADUCAH        CLOUDY    52  25  35 NW13G23   29.93R
HENDERSON      MOCLDY    48  31  51 NW13      29.88R
OWENSBORO      PTCLDY    48  30  49 W10       29.86R
HOPKINSVILLE   PTCLDY    49  27  41 NW7       29.89R
BOWLING GREEN  PTCLDY    52  28  39 NW9G22    29.87R
GLASGOW        NOT AVBL
$$

KYZ024-025-028>034-038-045-046-053-120400-
NORTH CENTRAL KENTUCKY

CITY           SKY/WX    TMP DP  RH WIND       PRES   REMARKS
LOUISVILLE/SDF PTCLDY    48  27  44 W13G24    29.79R
LOUISVILLE/LOU CLEAR     49  27  42 W12G22    29.78S
FORT KNOX      CLEAR     46  27  46 W12       29.79R
$$

KYZ035>037-039>044-047>052-055>060-089>105-120400-
NORTHEAST KENTUCKY

CITY           SKY/WX    TMP DP  RH WIND       PRES   REMARKS
LEXINGTON      PTCLDY    48  31  51 W15       29.76R
COVINGTON      CLEAR     45  28  51 W16G24    29.70R
FRANKFORT      MOCLDY    50  26  39 W13G23    29.75R
$$

KYZ054-064>069-076>088-106>120-120400-
SOUTHEAST KENTUCKY

CITY           SKY/WX    TMP DP  RH WIND       PRES   REMARKS
JACKSON        CLOUDY    49  29  46 SW6       29.75F
LONDON         PTCLDY    50  29  44 SW12G21   29.79F
SOMERSET       CLEAR     52  28  40 W14G25    29.81S
MIDDLESBORO    PTCLDY    48  32  54 SW7       29.85S
MONTICELLO     MOCLDY    52  31  44 SW22G29   29.83S
$$





USA.gov is the U.S. government's official web portal to all federal, state and local government web resources and services.